Location: Unspecified
(44.5780°N, 0.0000°E)
Time: 04:36:21
(UTC+00:00)

BUGSAT 1 - Visible Passes

Search period start: 04 April 2026 00:00
Search period end: 14 April 2026 00:00
Orbit: 501 x 542 km, 98.0° (Epoch: 29 March)

Date Brightness Start Highest point End Pass type
(mag) Time Alt. Az. Time Alt. Az. Time Alt. Az.
10 Apr ? 22:51:48 12° NNW 22:51:48 12° NNW 22:52:03 10° NNW visible
11 Apr ? 22:38:24 13° N 22:38:24 13° N 22:38:50 10° N visible
12 Apr ? 22:24:59 14° N 22:24:59 14° N 22:25:32 10° N visible
13 Apr ? 22:11:33 13° NNE 22:11:33 13° NNE 22:12:07 10° N visible
